Volver al catálogo

STARLINK-31295

ActivoComunicacionesVLEO
NORAD 59095·PAYLOAD·🇺🇸 United States

Lanzado Feb 29, 2024 desde Cape Canaveral Space Force Station

Loading…

Próximos Pases (próximas 24 horas)

TLE

ActualizadoSource: CelesTrak SupGP

Época: Sep 14, 2026, 22:21 UTC

1 59095C 24041X   26257.93173611 -.00014157  00000+0 -51280-3 0  2577
2 59095  43.0007 321.9383 0001585 272.9402  96.7437 15.27582905    19

Sigue STARLINK-31295 en tiempo real con AllMySat

Download on the App Store